Weather History for PAWG - November, 2012

Change the Weather History Date:

Wednesday, November 14, 2012

  Actual Average Record
Temperature  
Mean Temperature 42 °F -  
Max Temperature 44 °F 41 °F 59 °F (1976)
Min Temperature 39 °F 32 °F 12 °F (1955)
Degree Days  
Heating Degree Days 24    
Moisture  
Dew Point 37 °F    
Average Humidity 81    
Maximum Humidity 93    
Minimum Humidity 70    
Precipitation  
Precipitation 0.00 in - - ()
Sea Level Pressure  
Sea Level Pressure 29.94 in    
Wind  
Wind Speed 9 mph (SE)    
Max Wind Speed 23 mph    
Max Gust Speed 32 mph    
Visibility 10 miles    
Events      
Averages and records for this station are not official NWS values.
T = Trace of Precipitation, MM = Missing Value Source: NWS Daily Summary

Daily Weather History Graph

Daily Weather History Graph

Search for Another Location

Airport or City:

Trip Planner

Search our weather history database for the weather conditions in past years. The results will help you decide how hot, cold, wet, or windy it might be!

Date:

Astronomy

Nov. 14, 2012 Rise Set
Actual Time 7:27 AM AKST 3:39 PM AKST
Civil Twilight 6:44 AM AKST 4:22 PM AKST
Nautical Twilight 5:58 AM AKST 5:08 PM AKST
Astronomical Twilight 5:14 AM AKST 5:53 PM AKST
Moon 8:38 AM AKST (11/14) 4:20 PM AKST (11/14)
Length of Visible Light 9h 37m
Length of Day
8h 12m
New Moon, 1% of the Moon is Illuminated
Nov 14
New Moon
Nov 20
First Quarter
Nov 28
Full
Dec 6
Last Quarter
Dec 12
New

Hourly Weather History & Observations

Time (AKST) Temp. Windchill Dew Point Humidity Pressure Visibility Wind Dir Wind Speed Gust Speed Precip Events Conditions
12:16 AM 41.0 °F 35.8 °F 37.4 °F 87% 30.04 in 10.0 mi East 8.1 mph - N/A   Overcast
12:36 AM 41.0 °F 35.8 °F 37.4 °F 87% 30.05 in 10.0 mi SE 8.1 mph - N/A   Overcast
12:56 AM 41.0 °F 36.4 °F 37.4 °F 87% 30.05 in 10.0 mi East 6.9 mph - N/A   Overcast
1:16 AM 41.0 °F 34.7 °F 37.4 °F 87% 30.05 in 10.0 mi East 10.4 mph - N/A   Overcast
1:36 AM 39.2 °F 32.5 °F 37.4 °F 93% 30.04 in 10.0 mi East 10.4 mph - N/A   Overcast
1:56 AM 39.2 °F 32.5 °F 37.4 °F 93% 30.03 in 10.0 mi East 10.4 mph - N/A   Overcast
2:16 AM 39.2 °F 32.5 °F 37.4 °F 93% 30.04 in 10.0 mi East 10.4 mph - N/A   Overcast
2:36 AM 39.2 °F 35.0 °F 37.4 °F 93% 30.05 in 10.0 mi ESE 5.8 mph - N/A   Overcast
2:56 AM 41.0 °F 38.0 °F 37.4 °F 87% 30.04 in 10.0 mi ESE 4.6 mph - N/A   Overcast
3:16 AM 41.0 °F 34.7 °F 37.4 °F 87% 30.03 in 10.0 mi ESE 10.4 mph - N/A   Overcast
3:36 AM 41.0 °F 34.3 °F 37.4 °F 87% 30.03 in 10.0 mi ESE 11.5 mph - N/A   Overcast
3:56 AM 41.0 °F 38.0 °F 35.6 °F 81% 30.03 in 10.0 mi SE 4.6 mph - N/A   Overcast
4:16 AM 41.0 °F 33.9 °F 37.4 °F 87% 30.03 in 10.0 mi East 12.7 mph 17.3 mph N/A   Overcast
4:36 AM 41.0 °F - 35.6 °F 81% 30.04 in 10.0 mi Calm Calm - N/A   Overcast
4:56 AM 41.0 °F 35.2 °F 37.4 °F 87% 30.03 in 10.0 mi East 9.2 mph - N/A   Overcast
5:16 AM 41.0 °F 39.0 °F 35.6 °F 81% 30.04 in 10.0 mi SSE 3.5 mph - N/A   Overcast
5:36 AM 42.8 °F 40.1 °F 37.4 °F 81% 30.03 in 10.0 mi SE 4.6 mph - N/A   Overcast
5:56 AM 42.8 °F 41.1 °F 35.6 °F 76% 30.03 in 10.0 mi WNW 3.5 mph - N/A   Overcast
6:16 AM 42.8 °F 39.3 °F 35.6 °F 76% 30.02 in 10.0 mi SE 5.8 mph - N/A   Overcast
6:36 AM 41.0 °F 39.0 °F 35.6 °F 81% 30.02 in 10.0 mi WSW 3.5 mph - N/A   Overcast
6:56 AM 41.0 °F - 35.6 °F 81% 30.02 in 10.0 mi Calm Calm - N/A   Overcast
7:16 AM 41.0 °F - 35.6 °F 81% 30.02 in 10.0 mi Calm Calm - N/A   Overcast
7:36 AM 41.0 °F - 35.6 °F 81% 30.02 in 10.0 mi Calm Calm - N/A   Overcast
7:56 AM 42.8 °F - 35.6 °F 76% 30.03 in 10.0 mi Calm Calm - N/A   Overcast
8:16 AM 42.8 °F - 35.6 °F 76% 30.03 in 10.0 mi Calm Calm - N/A   Overcast
8:36 AM 42.8 °F 39.3 °F 35.6 °F 76% 30.02 in 10.0 mi SE 5.8 mph - N/A   Overcast
8:56 AM 41.0 °F 38.0 °F 37.4 °F 87% 30.02 in 10.0 mi SW 4.6 mph - N/A   Overcast
9:16 AM 42.8 °F - 37.4 °F 81% 30.02 in 10.0 mi Calm Calm - N/A   Overcast
9:36 AM 42.8 °F - 37.4 °F 81% 30.02 in 10.0 mi Calm Calm - N/A   Overcast
9:56 AM 42.8 °F 40.1 °F 37.4 °F 81% 30.02 in 10.0 mi SE 4.6 mph - N/A   Overcast
10:16 AM 42.8 °F 39.3 °F 37.4 °F 81% 30.01 in 10.0 mi ESE 5.8 mph - N/A   Overcast
10:36 AM 42.8 °F 36.6 °F 37.4 °F 81% 30.01 in 10.0 mi SE 11.5 mph - N/A   Overcast
10:56 AM 42.8 °F 40.1 °F 35.6 °F 76% 30.01 in 10.0 mi SSE 4.6 mph - N/A   Overcast
11:16 AM 42.8 °F 37.5 °F 37.4 °F 81% 30.00 in 10.0 mi SE 9.2 mph - N/A   Overcast
11:36 AM 42.8 °F 36.6 °F 37.4 °F 81% 29.99 in 10.0 mi SE 11.5 mph - N/A   Overcast
11:56 AM 42.8 °F 36.6 °F 37.4 °F 81% 29.98 in 10.0 mi SE 11.5 mph 18.4 mph N/A   Overcast
12:16 PM 42.8 °F 37.0 °F 37.4 °F 81% 29.97 in 10.0 mi ESE 10.4 mph 21.9 mph N/A   Overcast
12:36 PM 42.8 °F 35.4 °F 37.4 °F 81% 29.96 in 10.0 mi ESE 15.0 mph 18.4 mph N/A   Overcast
12:56 PM 44.6 °F 38.1 °F 37.4 °F 76% 29.95 in 10.0 mi ESE 13.8 mph 21.9 mph N/A   Overcast
1:16 PM 44.6 °F 38.4 °F 35.6 °F 71% 29.95 in 10.0 mi SE 12.7 mph 18.4 mph N/A   Overcast
1:36 PM 44.6 °F 37.2 °F 37.4 °F 76% 29.94 in 10.0 mi SE 17.3 mph 21.9 mph N/A   Overcast
1:56 PM 42.8 °F 35.1 °F 37.4 °F 81% 29.93 in 10.0 mi SE 16.1 mph 21.9 mph N/A   Overcast
2:16 PM 42.8 °F 34.3 °F 37.4 °F 81% 29.92 in 10.0 mi ESE 19.6 mph - N/A   Overcast
2:36 PM 42.8 °F 34.8 °F 37.4 °F 81% 29.91 in 10.0 mi ESE 17.3 mph 23.0 mph N/A   Overcast
2:56 PM 42.8 °F 34.3 °F 37.4 °F 81% 29.89 in 10.0 mi ESE 19.6 mph 24.2 mph N/A   Overcast
3:16 PM 42.8 °F 34.0 °F 37.4 °F 81% 29.89 in 10.0 mi ESE 20.7 mph - N/A   Overcast
3:36 PM 42.8 °F 34.8 °F 37.4 °F 81% 29.88 in 10.0 mi ESE 17.3 mph 31.1 mph N/A   Overcast
3:56 PM 42.8 °F 33.8 °F 35.6 °F 76% 29.86 in 10.0 mi ESE 21.9 mph 28.8 mph N/A   Overcast
4:16 PM 42.8 °F 33.5 °F 37.4 °F 81% 29.84 in 10.0 mi ESE 23.0 mph 29.9 mph N/A   Overcast
4:36 PM 42.8 °F 34.5 °F 37.4 °F 81% 29.84 in 10.0 mi ESE 18.4 mph 31.1 mph N/A   Overcast
4:56 PM 42.8 °F 33.8 °F 35.6 °F 76% 29.83 in 10.0 mi ESE 21.9 mph 27.6 mph N/A   Overcast
5:16 PM 42.8 °F 34.3 °F 37.4 °F 81% 29.83 in 10.0 mi ESE 19.6 mph 28.8 mph N/A   Overcast
5:36 PM 42.8 °F 34.5 °F 37.4 °F 81% 29.82 in 10.0 mi ESE 18.4 mph 26.5 mph N/A   Overcast
5:56 PM 42.8 °F 34.5 °F 35.6 °F 76% 29.81 in 10.0 mi ESE 18.4 mph 32.2 mph N/A   Overcast
6:16 PM 42.8 °F 34.3 °F 35.6 °F 76% 29.81 in 10.0 mi ESE 19.6 mph 29.9 mph N/A   Overcast
6:36 PM 42.8 °F 34.0 °F 35.6 °F 76% 29.79 in 10.0 mi ESE 20.7 mph 25.3 mph N/A   Overcast
6:56 PM 42.8 °F 34.3 °F 35.6 °F 76% 29.78 in 10.0 mi ESE 19.6 mph 29.9 mph N/A   Overcast
7:16 PM 42.8 °F 33.8 °F 35.6 °F 76% 29.77 in 10.0 mi ESE 21.9 mph 28.8 mph N/A   Overcast
7:36 PM 42.8 °F 34.0 °F 35.6 °F 76% 29.77 in 10.0 mi ESE 20.7 mph 26.5 mph N/A   Overcast
7:56 PM 42.8 °F 35.4 °F 35.6 °F 76% 29.77 in 10.0 mi SE 15.0 mph 24.2 mph N/A   Overcast
8:16 PM 42.8 °F 37.5 °F 37.4 °F 81% 29.80 in 10.0 mi SSE 9.2 mph 17.3 mph N/A   Overcast
8:36 PM 42.8 °F 37.5 °F 35.6 °F 76% 29.83 in 10.0 mi South 9.2 mph 21.9 mph N/A   Overcast
8:56 PM 42.8 °F 35.4 °F 35.6 °F 76% 29.81 in 10.0 mi South 15.0 mph 24.2 mph N/A   Overcast
9:16 PM 42.8 °F 36.6 °F 33.8 °F 70% 29.83 in 10.0 mi South 11.5 mph 18.4 mph N/A   Overcast
9:36 PM 42.8 °F 38.6 °F 35.6 °F 76% 29.84 in 10.0 mi SSW 6.9 mph - N/A   Overcast
9:56 PM 42.8 °F - 35.6 °F 76% 29.85 in 10.0 mi Calm Calm - N/A   Overcast
10:16 PM 42.8 °F 41.1 °F 37.4 °F 81% 29.86 in 10.0 mi ENE 3.5 mph - N/A   Overcast
10:36 PM 42.8 °F 41.1 °F 37.4 °F 81% 29.86 in 10.0 mi NE 3.5 mph - N/A   Overcast
10:56 PM 41.0 °F 37.1 °F 35.6 °F 81% 29.87 in 10.0 mi South 5.8 mph - N/A   Overcast
11:16 PM 41.0 °F - 35.6 °F 81% 29.87 in 10.0 mi Calm Calm - N/A   Overcast
11:36 PM 41.0 °F 39.0 °F 35.6 °F 81% 29.87 in 10.0 mi NE 3.5 mph - N/A   Overcast
11:56 PM 41.0 °F 35.2 °F 35.6 °F 81% 29.87 in 10.0 mi ESE 9.2 mph - N/A   Overcast